Location: Newark
(47.5833°N, 8.1500°E)
Time: 10:43:01
(UTC+00:00)

Altair - Pass Details

Date: 04 November 2020
Orbit: 1502 x 1682 km, 47.2° (Epoch: 25 November)

Event Time Altitude Azimuth Distance (km) Brightness Sun altitude
Exits shadow 05:05:37 13° 262° (W) 3,448 8.7 -12.3°
Maximum altitude 05:14:13 88° 174° (S) 1,556 7.5 -10.9°
Drops below altitude 10° 05:23:53 10° 87° (E) 3,807 11.0 -9.3°
Sets 05:27:02 0° 88° (E) 4,817 11.9 -8.7°
